Погода в Иракинде

Россия / Республика Бурятия     55°55′44″N   115°11′44″E
темп.,
°C
ветер,
м/с
пор.,
м/с
влажн.,
%
обл.,
%
осадки,
мм/ч
давл.,
гПа
погр.,
м
17 мая, вт
вт1723:00+2сз33775 0.0 100526
02:00+1ссз22869 0.1 100514
05:00+1сз228769 0.0 100614
08:00+7ссз38615 0.0 10041037
11:00+9ссз4115412 0.1 10031772
14:00+10сз595393 0.8 10031748
17:00+11ссз474594 0.3 10031838
20:00+6сз216599 0.4 100410
18 мая, ср
ср1823:00+5сз2168100 0.0 100511
02:00+4ссз226998 0.0 100511
05:00+4сз2269100 0.0 100613
08:00+8ссз5562100 0.3 10071006
11:00+9с596211 0.9 10081321
14:00+11ссз484762 1.1 10081898
17:00+11ссз385253 0.1 10081623
20:00+8ссз336782 0.2 100929
19 мая, чт
чт1923:00+5зсз118465 0.3 101010
02:00+7зюз1174100 0.3 100911
05:00+6юз227548 0.0 100715
08:00+9зюз2266100 0.1 1006329
11:00+10зюз1268100 0.4 1005468
14:00+12сз37535 1.6 10051425
17:00+11ссз7145388 0.1 10042139
20:00+8сз5106512 1.0 1005426
20 мая, пт
пт2023:00+5сз33794 0.8 100738
02:00+4сз33782 0.9 100618
05:00+4сз226996 0.0 100517
08:00+8сз5115680 0.1 10041739
11:00+6ссз4874100 1.1 10051189
14:00+7ссз6106151 2.2 10061230
17:00+9ссз595242 0.0 10071383
20:00+5с45675 0.0 1010122
21 мая, сб
сб2123:00+2ссз3282100 0.0 101229
02:00+1ссз228355 0.0 101319
05:00+1ссз118217 0.0 101316
08:00+6с1163100 0.0 1011469
11:00+10вюв114811 0.0 1008998
14:00+13ссв3339100 0.0 10061666
17:00+9ссз4551100 0.1 10071360
20:00+6зсз1277100 1.5 1009206